Regional Weather Roundup
Issued by NWS Goodland, KS

Home | Current Version | Previous Version | Graphics & Text | Print | Product List | Glossary On
Versions: 1 2 3 4 5 6 7 8 9 10 11 12 13 14 15 16 17 18 19 20 21 22 23 24 25 26 27 28 29 30 31 32 33 34 35 36 37 38 39 40 41 42 43 44 45 46 47 48 49 50
000
ASUS43 KGLD 280459
RWRGLD

GOODLAND FORECAST AREA HOURLY WEATHER ROUNDUP
NATIONAL WEATHER SERVICE GOODLAND KS
1100 PM MDT TUE JUN 27 2017

...OFFICIAL OBSERVATIONS...

CITY           SKY/WX    TMP DP  RH WIND       PRES   REMARKS
GOODLAND KS    CLOUDY    69  56  62 S20G28    29.75R
HILL CITY KS   CLOUDY    86  59  39 SW23G31   29.74R
IMPERIAL NEB   CLOUDY    71  49  45 S6        29.77R
MCCOOK NEB     CLOUDY    79  54  41 SW15G23   29.70R
AKRON CO       CLEAR     68  42  38 N12       29.86S
BURLINGTON CO  CLOUDY    68  56  65 SE21G28   29.78R
LIMON CO       CLEAR     70  38  31 N21       29.91R
$$

...UNOFFICIAL OBSERVATIONS...

CITY           SKY/WX    TMP DP  RH WIND       PRES   REMARKS
LENORA KS        N/A     82  32  16 MISG        N/A
NORTON KS      CLEAR     81  54  39 S12       29.74R
SHARON SPRINGS   N/A     70  63  78 SE13G26     N/A
TRENTON NEB      N/A     79  32  18 SW13G20     N/A
KIT CARSON CO    N/A     70  57  62 CALM        N/A
YUMA CO        FAIR      68  41  37 N9        29.83R
$$




USA.gov is the U.S. government's official web portal to all federal, state and local government web resources and services.